Time,TemperatureF,DewpointF,PressureIn,WindDirection,WindDirectionDegrees,WindSpeedMPH,WindSpeedGustMPH,Humidity,HourlyPrecipIn,Conditions,Clouds,dailyrainin,SoftwareType,DateUTC
2013-01-27 00:03:00,65.0,62.0,30.23,ENE,58,0.0,0.0,91,0.00,,,0.00,,2013-01-27 05:03:00,
2013-01-27 00:12:00,65.0,62.0,30.23,ENE,58,0.0,0.0,91,0.00,,,0.00,,2013-01-27 05:12:00,
2013-01-27 00:22:00,65.0,63.0,30.22,ENE,58,0.0,0.0,92,0.00,,,0.00,,2013-01-27 05:22:00,
2013-01-27 00:32:00,64.0,62.0,30.22,ENE,58,0.0,0.0,92,0.00,,,0.00,,2013-01-27 05:32:00,
2013-01-27 00:41:00,64.0,62.0,30.22,ENE,58,0.0,0.0,92,0.00,,,0.00,,2013-01-27 05:41:00,
2013-01-27 00:52:00,64.0,62.0,30.22,ENE,58,0.0,0.0,92,0.00,,,0.00,,2013-01-27 05:52:00,
2013-01-27 01:02:00,64.0,62.0,30.22,ENE,58,0.0,0.0,93,0.00,,,0.00,,2013-01-27 06:02:00,
2013-01-27 01:11:00,64.0,62.0,30.22,ENE,58,0.0,0.0,93,0.00,,,0.00,,2013-01-27 06:11:00,
2013-01-27 01:21:00,64.0,62.0,30.22,ENE,58,0.0,0.0,92,0.00,,,0.00,,2013-01-27 06:21:00,
2013-01-27 01:32:00,64.0,62.0,30.23,ENE,58,0.0,0.0,93,0.00,,,0.00,,2013-01-27 06:32:00,
2013-01-27 01:42:00,64.0,62.0,30.23,ENE,58,0.0,0.0,93,0.00,,,0.00,,2013-01-27 06:42:00,
2013-01-27 01:52:00,63.0,61.0,30.22,ENE,58,0.0,0.0,93,0.00,,,0.00,,2013-01-27 06:52:00,
2013-01-27 02:01:00,63.0,61.0,30.22,ENE,58,0.0,0.0,94,0.00,,,0.00,,2013-01-27 07:01:00,
2013-01-27 02:14:00,63.0,61.0,30.22,ENE,58,0.0,0.0,94,0.00,,,0.00,,2013-01-27 07:14:00,
2013-01-27 02:21:00,63.0,61.0,30.22,ENE,58,0.0,0.0,94,0.00,,,0.00,,2013-01-27 07:21:00,
2013-01-27 02:31:00,63.0,61.0,30.22,ENE,58,0.0,0.0,94,0.00,,,0.00,,2013-01-27 07:31:00,
2013-01-27 02:42:00,63.0,61.0,30.22,ENE,58,0.0,0.0,94,0.00,,,0.00,,2013-01-27 07:42:00,
2013-01-27 02:52:00,63.0,62.0,30.22,ENE,58,0.0,0.0,95,0.00,,,0.00,,2013-01-27 07:52:00,
2013-01-27 03:01:00,63.0,62.0,30.22,ENE,58,0.0,0.0,95,0.00,,,0.00,,2013-01-27 08:01:00,
2013-01-27 03:11:00,63.0,62.0,30.22,ENE,58,0.0,0.0,95,0.00,,,0.00,,2013-01-27 08:11:00,
2013-01-27 03:22:00,63.0,62.0,30.22,ENE,58,0.0,0.0,95,0.00,,,0.00,,2013-01-27 08:22:00,
2013-01-27 03:32:00,63.0,62.0,30.22,ENE,58,0.0,0.0,96,0.00,,,0.00,,2013-01-27 08:32:00,
2013-01-27 03:42:00,63.0,62.0,30.22,ENE,58,0.0,0.0,96,0.00,,,0.00,,2013-01-27 08:42:00,
2013-01-27 03:52:00,62.0,61.0,30.22,ENE,58,0.0,0.0,95,0.00,,,0.00,,2013-01-27 08:52:00,
2013-01-27 04:02:00,63.0,62.0,30.22,ENE,58,0.0,0.0,96,0.00,,,0.00,,2013-01-27 09:02:00,
2013-01-27 04:11:00,63.0,62.0,30.22,ENE,58,0.0,0.0,96,0.00,,,0.00,,2013-01-27 09:11:00,
2013-01-27 04:21:00,62.0,61.0,30.22,ENE,58,0.0,0.0,96,0.00,,,0.00,,2013-01-27 09:21:00,
2013-01-27 04:32:00,62.0,61.0,30.21,ENE,58,0.0,0.0,96,0.00,,,0.00,,2013-01-27 09:32:00,
2013-01-27 04:41:00,62.0,61.0,30.21,ENE,58,0.0,0.0,96,0.00,,,0.00,,2013-01-27 09:41:00,
2013-01-27 04:52:00,62.0,61.0,30.21,ENE,58,0.0,0.0,96,0.00,,,0.00,,2013-01-27 09:52:00,
2013-01-27 05:01:00,62.0,61.0,30.22,ENE,58,0.0,0.0,96,0.00,,,0.00,,2013-01-27 10:01:00,
2013-01-27 05:11:00,61.0,60.0,30.22,ENE,58,0.0,0.0,96,0.00,,,0.00,,2013-01-27 10:11:00,
2013-01-27 05:21:00,61.0,60.0,30.22,ENE,58,0.0,0.0,96,0.00,,,0.00,,2013-01-27 10:21:00,
2013-01-27 05:32:00,62.0,61.0,30.21,ENE,58,0.0,0.0,96,0.00,,,0.00,,2013-01-27 10:32:00,
2013-01-27 05:42:00,62.0,61.0,30.21,ENE,58,0.0,0.0,96,0.00,,,0.00,,2013-01-27 10:42:00,
2013-01-27 05:52:00,62.0,61.0,30.21,ENE,58,0.0,0.0,97,0.00,,,0.00,,2013-01-27 10:52:00,
2013-01-27 06:01:00,62.0,61.0,30.22,ENE,58,0.0,0.0,96,0.00,,,0.00,,2013-01-27 11:01:00,
2013-01-27 06:11:00,62.0,61.0,30.22,ENE,58,0.0,0.0,96,0.00,,,0.00,,2013-01-27 11:11:00,
2013-01-27 06:21:00,62.0,61.0,30.22,ENE,58,0.0,0.0,96,0.00,,,0.00,,2013-01-27 11:21:00,
2013-01-27 06:32:00,62.0,61.0,30.23,ENE,58,0.0,0.0,96,0.00,,,0.00,,2013-01-27 11:32:00,
2013-01-27 06:42:00,62.0,61.0,30.23,ENE,58,0.0,0.0,96,0.00,,,0.00,,2013-01-27 11:42:00,
2013-01-27 06:52:00,62.0,61.0,30.23,ENE,58,0.0,0.0,97,0.00,,,0.00,,2013-01-27 11:52:00,
2013-01-27 07:02:00,62.0,61.0,30.24,ENE,58,0.0,0.0,96,0.00,,,0.00,,2013-01-27 12:02:00,
2013-01-27 07:12:00,62.0,61.0,30.24,ENE,58,0.0,0.0,96,0.00,,,0.00,,2013-01-27 12:12:00,
2013-01-27 07:22:00,61.0,60.0,30.24,ENE,58,0.0,0.0,96,0.00,,,0.00,,2013-01-27 12:22:00,
2013-01-27 07:32:00,62.0,61.0,30.24,ENE,58,0.0,0.0,97,0.00,,,0.00,,2013-01-27 12:32:00,
2013-01-27 07:42:00,62.0,61.0,30.24,ENE,58,0.0,0.0,97,0.00,,,0.00,,2013-01-27 12:42:00,
2013-01-27 07:52:00,62.0,61.0,30.24,NE,42,0.0,1.0,97,0.00,,,0.00,,2013-01-27 12:52:00,
2013-01-27 08:02:00,63.0,62.0,30.25,NE,56,0.0,1.0,96,0.00,,,0.00,,2013-01-27 13:02:00,
2013-01-27 08:11:00,63.0,62.0,30.25,NE,56,0.0,1.0,96,0.00,,,0.00,,2013-01-27 13:11:00,
2013-01-27 08:22:00,65.0,63.0,30.26,NNE,22,0.0,1.0,94,0.00,,,0.00,,2013-01-27 13:22:00,
2013-01-27 08:32:00,66.0,63.0,30.26,NE,35,0.0,1.0,91,0.00,,,0.00,,2013-01-27 13:32:00,
2013-01-27 08:42:00,66.0,63.0,30.26,NE,35,0.0,1.0,91,0.00,,,0.00,,2013-01-27 13:42:00,
2013-01-27 08:52:00,67.0,64.0,30.27,NNE,18,0.0,1.0,89,0.00,,,0.00,,2013-01-27 13:52:00,
2013-01-27 09:02:00,68.0,64.0,30.27,NNE,23,0.0,1.0,88,0.00,,,0.00,,2013-01-27 14:02:00,
2013-01-27 09:12:00,68.0,64.0,30.27,NNE,23,0.0,1.0,88,0.00,,,0.00,,2013-01-27 14:12:00,
2013-01-27 09:22:00,70.0,65.0,30.27,NNE,24,1.0,3.0,85,0.00,,,0.00,,2013-01-27 14:22:00,
2013-01-27 09:32:00,71.0,65.0,30.28,NE,34,0.0,2.0,82,0.00,,,0.00,,2013-01-27 14:32:00,
2013-01-27 09:42:00,71.0,65.0,30.28,NE,34,0.0,2.0,82,0.00,,,0.00,,2013-01-27 14:42:00,
2013-01-27 09:53:00,73.0,66.0,30.28,East,85,1.0,3.0,79,0.00,,,0.00,,2013-01-27 14:53:00,
2013-01-27 10:02:00,73.0,66.0,30.29,East,89,1.0,3.0,78,0.00,,,0.00,,2013-01-27 15:02:00,
2013-01-27 10:12:00,73.0,66.0,30.29,East,89,1.0,3.0,78,0.00,,,0.00,,2013-01-27 15:12:00,
2013-01-27 10:22:00,75.0,66.0,30.29,East,80,3.0,8.0,73,0.00,,,0.00,,2013-01-27 15:22:00,
2013-01-27 10:32:00,76.0,65.0,30.29,ENE,69,5.0,9.0,69,0.00,,,0.00,,2013-01-27 15:32:00,
2013-01-27 10:42:00,76.0,65.0,30.29,ENE,69,5.0,9.0,69,0.00,,,0.00,,2013-01-27 15:42:00,
2013-01-27 10:53:00,77.0,66.0,30.28,ESE,114,4.0,9.0,69,0.00,,,0.00,,2013-01-27 15:53:00,
2013-01-27 11:02:00,76.0,65.0,30.28,East,97,4.0,10.0,70,0.00,,,0.00,,2013-01-27 16:02:00,
2013-01-27 11:12:00,76.0,65.0,30.28,East,97,4.0,10.0,70,0.00,,,0.00,,2013-01-27 16:12:00,
2013-01-27 11:22:00,76.0,65.0,30.28,ESE,123,4.0,9.0,69,0.00,,,0.00,,2013-01-27 16:22:00,
2013-01-27 11:32:00,77.0,65.0,30.28,East,82,6.0,10.0,67,0.00,,,0.00,,2013-01-27 16:32:00,
2013-01-27 11:42:00,77.0,65.0,30.28,East,82,6.0,10.0,67,0.00,,,0.00,,2013-01-27 16:42:00,
2013-01-27 11:53:00,77.0,65.0,30.28,NE,51,4.0,11.0,66,0.00,,,0.00,,2013-01-27 16:53:00,
2013-01-27 12:02:00,76.0,64.0,30.28,ENE,69,5.0,10.0,67,0.00,,,0.00,,2013-01-27 17:02:00,
2013-01-27 12:12:00,76.0,64.0,30.28,ENE,69,5.0,10.0,67,0.00,,,0.00,,2013-01-27 17:12:00,
2013-01-27 12:22:00,77.0,65.0,30.28,SE,146,3.0,12.0,67,0.00,,,0.00,,2013-01-27 17:22:00,
2013-01-27 12:32:00,78.0,66.0,30.27,ENE,68,3.0,10.0,66,0.00,,,0.00,,2013-01-27 17:32:00,
2013-01-27 12:42:00,78.0,66.0,30.27,ENE,68,3.0,10.0,66,0.00,,,0.00,,2013-01-27 17:42:00,
2013-01-27 12:53:00,78.0,65.0,30.27,ENE,71,5.0,15.0,64,0.00,,,0.00,,2013-01-27 17:53:00,
2013-01-27 13:02:00,78.0,65.0,30.26,East,84,3.0,10.0,65,0.00,,,0.00,,2013-01-27 18:02:00,
2013-01-27 13:12:00,78.0,65.0,30.26,East,84,3.0,10.0,65,0.00,,,0.00,,2013-01-27 18:12:00,
2013-01-27 13:22:00,79.0,65.0,30.25,ESE,108,4.0,10.0,62,0.00,,,0.00,,2013-01-27 18:22:00,
2013-01-27 13:32:00,79.0,65.0,30.25,NE,44,4.0,6.0,62,0.00,,,0.00,,2013-01-27 18:32:00,
2013-01-27 13:42:00,79.0,65.0,30.25,NE,44,4.0,6.0,62,0.00,,,0.00,,2013-01-27 18:42:00,
2013-01-27 13:53:00,79.0,65.0,30.24,East,84,4.0,8.0,62,0.00,,,0.00,,2013-01-27 18:53:00,
2013-01-27 14:02:00,79.0,64.0,30.24,East,83,5.0,9.0,60,0.00,,,0.00,,2013-01-27 19:02:00,
2013-01-27 14:12:00,79.0,64.0,30.24,East,83,5.0,9.0,60,0.00,,,0.00,,2013-01-27 19:12:00,
2013-01-27 14:22:00,78.0,64.0,30.24,East,98,4.0,9.0,62,0.00,,,0.00,,2013-01-27 19:22:00,
2013-01-27 14:32:00,78.0,63.0,30.24,ENE,60,3.0,8.0,61,0.00,,,0.00,,2013-01-27 19:32:00,
2013-01-27 14:42:00,78.0,63.0,30.24,ENE,60,3.0,8.0,61,0.00,,,0.00,,2013-01-27 19:42:00,
2013-01-27 14:52:00,78.0,63.0,30.24,ESE,108,3.0,11.0,60,0.00,,,0.00,,2013-01-27 19:52:00,
2013-01-27 15:02:00,78.0,63.0,30.23,East,86,4.0,8.0,60,0.00,,,0.00,,2013-01-27 20:02:00,
2013-01-27 15:12:00,78.0,63.0,30.23,East,86,4.0,8.0,60,0.00,,,0.00,,2013-01-27 20:12:00,
2013-01-27 15:22:00,78.0,64.0,30.23,ESE,118,4.0,10.0,62,0.00,,,0.00,,2013-01-27 20:22:00,
2013-01-27 15:33:00,79.0,64.0,30.23,ENE,58,2.0,8.0,61,0.00,,,0.00,,2013-01-27 20:33:00,
2013-01-27 15:42:00,79.0,64.0,30.23,ENE,58,2.0,8.0,61,0.00,,,0.00,,2013-01-27 20:42:00,
2013-01-27 15:52:00,77.0,63.0,30.23,East,98,3.0,10.0,63,0.00,,,0.00,,2013-01-27 20:52:00,
2013-01-27 16:02:00,77.0,63.0,30.24,East,91,4.0,10.0,63,0.00,,,0.00,,2013-01-27 21:02:00,
2013-01-27 16:12:00,77.0,63.0,30.24,East,91,4.0,10.0,63,0.00,,,0.00,,2013-01-27 21:12:00,
2013-01-27 16:22:00,77.0,64.0,30.24,East,81,3.0,8.0,64,0.00,,,0.00,,2013-01-27 21:22:00,
2013-01-27 16:33:00,77.0,64.0,30.24,North,8,2.0,9.0,65,0.00,,,0.00,,2013-01-27 21:33:00,
2013-01-27 16:42:00,77.0,64.0,30.24,North,8,2.0,9.0,65,0.00,,,0.00,,2013-01-27 21:42:00,
2013-01-27 16:52:00,77.0,64.0,30.24,ENE,75,3.0,8.0,65,0.00,,,0.00,,2013-01-27 21:52:00,
2013-01-27 17:02:00,77.0,64.0,30.24,NE,51,3.0,9.0,64,0.00,,,0.00,,2013-01-27 22:02:00,
2013-01-27 17:12:00,77.0,64.0,30.24,NE,51,3.0,9.0,64,0.00,,,0.00,,2013-01-27 22:12:00,
2013-01-27 17:22:00,76.0,64.0,30.24,ESE,115,2.0,8.0,67,0.00,,,0.00,,2013-01-27 22:22:00,
2013-01-27 17:32:00,76.0,65.0,30.25,NNE,24,3.0,6.0,69,0.00,,,0.00,,2013-01-27 22:32:00,
2013-01-27 17:42:00,76.0,65.0,30.25,NNE,24,3.0,6.0,69,0.00,,,0.00,,2013-01-27 22:42:00,
2013-01-27 17:52:00,75.0,65.0,30.25,NNE,23,1.0,7.0,70,0.00,,,0.00,,2013-01-27 22:52:00,
2013-01-27 18:02:00,74.0,64.0,30.26,ENE,63,3.0,6.0,72,0.00,,,0.00,,2013-01-27 23:02:00,
2013-01-27 18:12:00,74.0,64.0,30.26,ENE,63,3.0,6.0,72,0.00,,,0.00,,2013-01-27 23:12:00,
2013-01-27 18:22:00,74.0,65.0,30.26,East,96,1.0,5.0,74,0.00,,,0.00,,2013-01-27 23:22:00,
2013-01-27 18:32:00,73.0,65.0,30.26,East,84,1.0,6.0,75,0.00,,,0.00,,2013-01-27 23:32:00,
2013-01-27 18:42:00,73.0,65.0,30.26,East,84,1.0,6.0,75,0.00,,,0.00,,2013-01-27 23:42:00,
2013-01-27 18:53:00,73.0,65.0,30.27,ENE,58,3.0,4.0,76,0.00,,,0.00,,2013-01-27 23:53:00,
2013-01-27 19:02:00,73.0,65.0,30.27,East,82,1.0,5.0,76,0.00,,,0.00,,2013-01-28 00:02:00,
2013-01-27 19:11:00,73.0,65.0,30.27,East,82,1.0,5.0,76,0.00,,,0.00,,2013-01-28 00:11:00,
2013-01-27 19:21:00,73.0,65.0,30.27,ENE,74,1.0,5.0,77,0.00,,,0.00,,2013-01-28 00:21:00,
2013-01-27 19:32:00,72.0,65.0,30.27,East,94,1.0,5.0,78,0.00,,,0.00,,2013-01-28 00:32:00,
2013-01-27 19:42:00,72.0,65.0,30.27,East,94,1.0,5.0,78,0.00,,,0.00,,2013-01-28 00:42:00,
2013-01-27 19:52:00,72.0,65.0,30.27,NNE,29,2.0,7.0,78,0.00,,,0.00,,2013-01-28 00:52:00,
2013-01-27 20:02:00,72.0,65.0,30.27,East,96,1.0,4.0,78,0.00,,,0.00,,2013-01-28 01:02:00,
2013-01-27 20:11:00,72.0,65.0,30.27,East,96,1.0,4.0,78,0.00,,,0.00,,2013-01-28 01:11:00,
2013-01-27 20:22:00,72.0,65.0,30.28,East,83,0.0,4.0,78,0.00,,,0.00,,2013-01-28 01:22:00,
2013-01-27 20:33:00,72.0,65.0,30.28,ENE,61,1.0,5.0,78,0.00,,,0.00,,2013-01-28 01:33:00,
2013-01-27 20:42:00,72.0,65.0,30.28,ENE,61,1.0,5.0,78,0.00,,,0.00,,2013-01-28 01:42:00,
2013-01-27 20:52:00,72.0,65.0,30.28,East,86,1.0,5.0,79,0.00,,,0.00,,2013-01-28 01:52:00,
2013-01-27 21:02:00,72.0,65.0,30.29,ENE,64,3.0,6.0,78,0.00,,,0.00,,2013-01-28 02:02:00,
2013-01-27 21:11:00,72.0,65.0,30.29,ENE,64,3.0,6.0,78,0.00,,,0.00,,2013-01-28 02:11:00,
2013-01-27 21:22:00,73.0,66.0,30.29,East,86,3.0,8.0,78,0.00,,,0.00,,2013-01-28 02:22:00,
2013-01-27 21:32:00,73.0,65.0,30.29,East,83,3.0,7.0,77,0.00,,,0.00,,2013-01-28 02:32:00,
2013-01-27 21:42:00,73.0,65.0,30.29,East,83,3.0,7.0,77,0.00,,,0.00,,2013-01-28 02:42:00,
2013-01-27 21:52:00,73.0,65.0,30.29,East,86,2.0,5.0,76,0.00,,,0.00,,2013-01-28 02:52:00,
2013-01-27 22:02:00,73.0,65.0,30.29,East,79,2.0,6.0,76,0.00,,,0.00,,2013-01-28 03:02:00,
2013-01-27 22:12:00,73.0,65.0,30.29,East,79,2.0,6.0,76,0.00,,,0.00,,2013-01-28 03:12:00,
2013-01-27 22:22:00,73.0,65.0,30.29,East,85,0.0,3.0,76,0.00,,,0.00,,2013-01-28 03:22:00,
2013-01-27 22:32:00,73.0,65.0,30.29,East,93,1.0,4.0,76,0.00,,,0.00,,2013-01-28 03:32:00,
2013-01-27 22:42:00,73.0,65.0,30.29,East,93,1.0,4.0,76,0.00,,,0.00,,2013-01-28 03:42:00,
2013-01-27 22:53:00,73.0,65.0,30.29,East,101,2.0,6.0,75,0.00,,,0.00,,2013-01-28 03:53:00,
2013-01-27 23:02:00,73.0,65.0,30.29,East,89,1.0,6.0,75,0.00,,,0.00,,2013-01-28 04:02:00,
2013-01-27 23:12:00,73.0,65.0,30.29,East,89,1.0,6.0,75,0.00,,,0.00,,2013-01-28 04:12:00,
2013-01-27 23:22:00,73.0,65.0,30.28,East,87,1.0,5.0,76,0.00,,,0.00,,2013-01-28 04:22:00,
2013-01-27 23:32:00,72.0,64.0,30.28,East,80,2.0,4.0,77,0.00,,,0.00,,2013-01-28 04:32:00,
2013-01-27 23:42:00,72.0,64.0,30.28,East,80,2.0,4.0,77,0.00,,,0.00,,2013-01-28 04:42:00,
2013-01-27 23:52:00,72.0,65.0,30.28,East,87,2.0,6.0,78,0.00,,,0.00,,2013-01-28 04:52:00,